Torna al catalogo

SL-19 DEB

AttivoUNKNOWN
NORAD 23493·DEBRIS·🇷🇺 Russia

Lanciato Dec 26, 1994 da Baikonur Cosmodrome

Loading…

Prossimi Passaggi (prossime 24 ore)

TLE

AggiornatoSource: Space-Track

Epoca: Sep 14, 2026, 13:03 UTC

1 23493U 94085R   26257.54401206  .00000075  00000-0  31847-2 0  9998
2 23493  64.9382  90.7587 0145498 161.3704 229.0307 11.31975294310575

Traccia SL-19 DEB in tempo reale con AllMySat

Download on the App Store